Time,TemperatureF,DewpointF,PressureIn,WindDirection,WindDirectionDegrees,WindSpeedMPH,WindSpeedGustMPH,Humidity,HourlyPrecipIn,Conditions,Clouds,dailyrainin,SoftwareType,DateUTC
2013-06-09 00:02:00,77.0,62.0,29.49,SE,131,4.0,10.0,59,0.00,,,0.00,,2013-06-09 05:02:00,
2013-06-09 00:12:00,77.0,62.0,29.49,SE,131,4.0,10.0,59,0.00,,,0.00,,2013-06-09 05:12:00,
2013-06-09 00:22:00,77.0,62.0,29.51,SE,129,4.0,9.0,59,0.00,,,0.00,,2013-06-09 05:22:00,
2013-06-09 00:32:00,77.0,62.0,29.52,ESE,117,2.0,8.0,59,0.00,,,0.00,,2013-06-09 05:32:00,
2013-06-09 00:42:00,77.0,62.0,29.52,ESE,117,2.0,8.0,59,0.00,,,0.00,,2013-06-09 05:42:00,
2013-06-09 00:52:00,77.0,63.0,29.52,ESE,114,2.0,7.0,61,0.00,,,0.00,,2013-06-09 05:52:00,
2013-06-09 01:02:00,77.0,63.0,29.51,SE,133,4.0,8.0,62,0.00,,,0.00,,2013-06-09 06:02:00,
2013-06-09 01:12:00,77.0,63.0,29.51,SE,133,4.0,8.0,62,0.00,,,0.00,,2013-06-09 06:12:00,
2013-06-09 01:22:00,77.0,64.0,29.50,SE,142,3.0,9.0,64,0.00,,,0.00,,2013-06-09 06:22:00,
2013-06-09 01:32:00,76.0,64.0,29.50,ESE,113,4.0,10.0,66,0.00,,,0.00,,2013-06-09 06:32:00,
2013-06-09 01:42:00,76.0,64.0,29.50,ESE,113,4.0,10.0,66,0.00,,,0.00,,2013-06-09 06:42:00,
2013-06-09 01:52:00,76.0,65.0,29.50,SE,126,4.0,11.0,69,0.00,,,0.00,,2013-06-09 06:52:00,
2013-06-09 02:02:00,76.0,66.0,29.51,SE,145,1.0,8.0,71,0.00,,,0.00,,2013-06-09 07:02:00,
2013-06-09 02:12:00,76.0,66.0,29.51,SE,145,1.0,8.0,71,0.00,,,0.00,,2013-06-09 07:12:00,
2013-06-09 02:22:00,75.0,65.0,29.50,ESE,119,3.0,10.0,72,0.00,,,0.00,,2013-06-09 07:22:00,
2013-06-09 02:32:00,75.0,66.0,29.50,SSE,160,3.0,9.0,74,0.00,,,0.00,,2013-06-09 07:32:00,
2013-06-09 02:42:00,75.0,66.0,29.50,SSE,160,3.0,9.0,74,0.00,,,0.00,,2013-06-09 07:42:00,
2013-06-09 02:52:00,75.0,67.0,29.50,SE,134,2.0,8.0,76,0.00,,,0.00,,2013-06-09 07:52:00,
2013-06-09 03:02:00,74.0,66.0,29.50,SSW,192,2.0,7.0,77,0.00,,,0.00,,2013-06-09 08:02:00,
2013-06-09 03:12:00,74.0,66.0,29.50,SSW,192,2.0,7.0,77,0.00,,,0.00,,2013-06-09 08:12:00,
2013-06-09 03:22:00,74.0,67.0,29.50,SE,132,1.0,4.0,79,0.00,,,0.00,,2013-06-09 08:22:00,
2013-06-09 03:32:00,74.0,68.0,29.50,SE,144,1.0,6.0,81,0.00,,,0.00,,2013-06-09 08:32:00,
2013-06-09 03:42:00,74.0,68.0,29.50,SE,144,1.0,6.0,81,0.00,,,0.00,,2013-06-09 08:42:00,
2013-06-09 03:53:00,74.0,68.0,29.51,SE,130,1.0,5.0,82,0.00,,,0.00,,2013-06-09 08:53:00,
2013-06-09 04:02:00,74.0,68.0,29.51,SSE,155,2.0,8.0,83,0.00,,,0.00,,2013-06-09 09:02:00,
2013-06-09 04:12:00,74.0,68.0,29.51,SSE,155,2.0,8.0,83,0.00,,,0.00,,2013-06-09 09:12:00,
2013-06-09 04:22:00,74.0,68.0,29.52,ESE,112,2.0,5.0,83,0.00,,,0.00,,2013-06-09 09:22:00,
2013-06-09 04:33:00,74.0,69.0,29.51,SSE,150,2.0,6.0,84,0.00,,,0.00,,2013-06-09 09:33:00,
2013-06-09 04:43:00,74.0,69.0,29.51,SSE,150,2.0,6.0,84,0.00,,,0.00,,2013-06-09 09:43:00,
2013-06-09 04:52:00,74.0,69.0,29.51,SE,140,2.0,9.0,85,0.00,,,0.00,,2013-06-09 09:52:00,
2013-06-09 05:03:00,74.0,69.0,29.51,SSE,165,3.0,8.0,85,0.00,,,0.00,,2013-06-09 10:03:00,
2013-06-09 05:12:00,74.0,69.0,29.51,SSE,165,3.0,8.0,85,0.00,,,0.00,,2013-06-09 10:12:00,
2013-06-09 05:23:00,74.0,70.0,29.52,South,171,2.0,11.0,86,0.00,,,0.00,,2013-06-09 10:23:00,
2013-06-09 05:32:00,74.0,70.0,29.52,SE,138,3.0,11.0,86,0.00,,,0.00,,2013-06-09 10:32:00,
2013-06-09 05:43:00,74.0,70.0,29.52,SE,138,3.0,11.0,86,0.00,,,0.00,,2013-06-09 10:43:00,
2013-06-09 05:52:00,73.0,69.0,29.51,South,180,3.0,8.0,87,0.00,,,0.00,,2013-06-09 10:52:00,
2013-06-09 06:02:00,73.0,69.0,29.52,ESE,122,4.0,11.0,88,0.00,,,0.00,,2013-06-09 11:02:00,
2013-06-09 06:12:00,73.0,69.0,29.52,ESE,122,4.0,11.0,88,0.00,,,0.00,,2013-06-09 11:12:00,
2013-06-09 06:22:00,73.0,69.0,29.53,SSW,205,3.0,10.0,88,0.00,,,0.00,,2013-06-09 11:22:00,
2013-06-09 06:32:00,73.0,69.0,29.54,WSW,242,1.0,7.0,88,0.00,,,0.00,,2013-06-09 11:32:00,
2013-06-09 06:42:00,73.0,69.0,29.54,WSW,242,1.0,7.0,88,0.00,,,0.00,,2013-06-09 11:42:00,
2013-06-09 06:53:00,73.0,69.0,29.56,NW,325,4.0,10.0,86,0.01,,,0.01,,2013-06-09 11:53:00,
2013-06-09 07:02:00,68.0,66.0,29.59,NNW,348,2.0,9.0,92,0.13,,,0.13,,2013-06-09 12:02:00,
2013-06-09 07:12:00,68.0,66.0,29.59,NNW,348,2.0,9.0,92,0.13,,,0.13,,2013-06-09 12:12:00,
2013-06-09 07:22:00,68.0,66.0,29.59,NNW,336,2.0,8.0,94,0.56,,,0.56,,2013-06-09 12:22:00,
2013-06-09 07:32:00,67.0,66.0,29.58,North,5,2.0,8.0,95,0.65,,,0.65,,2013-06-09 12:32:00,
2013-06-09 07:42:00,67.0,66.0,29.58,North,5,2.0,8.0,95,0.65,,,0.65,,2013-06-09 12:42:00,
2013-06-09 07:52:00,67.0,66.0,29.57,North,355,3.0,8.0,95,0.65,,,0.67,,2013-06-09 12:52:00,
2013-06-09 08:02:00,67.0,66.0,29.55,NNE,22,1.0,11.0,95,0.53,,,0.68,,2013-06-09 13:02:00,
2013-06-09 08:12:00,67.0,66.0,29.55,NNE,22,1.0,11.0,95,0.53,,,0.68,,2013-06-09 13:12:00,
2013-06-09 08:22:00,67.0,66.0,29.55,ENE,63,5.0,12.0,96,0.13,,,0.71,,2013-06-09 13:22:00,
2013-06-09 08:32:00,67.0,66.0,29.55,ENE,76,2.0,10.0,96,0.06,,,0.71,,2013-06-09 13:32:00,
2013-06-09 08:42:00,67.0,66.0,29.55,ENE,76,2.0,10.0,96,0.06,,,0.71,,2013-06-09 13:42:00,
2013-06-09 08:52:00,68.0,67.0,29.54,East,96,1.0,7.0,96,0.04,,,0.71,,2013-06-09 13:52:00,
2013-06-09 09:02:00,68.0,67.0,29.54,NE,46,2.0,9.0,96,0.04,,,0.72,,2013-06-09 14:02:00,
2013-06-09 09:12:00,68.0,67.0,29.54,NE,46,2.0,9.0,96,0.04,,,0.72,,2013-06-09 14:12:00,
2013-06-09 09:22:00,68.0,67.0,29.53,ESE,111,4.0,9.0,96,0.01,,,0.72,,2013-06-09 14:22:00,
2013-06-09 09:32:00,69.0,68.0,29.52,East,98,4.0,10.0,95,0.01,,,0.72,,2013-06-09 14:32:00,
2013-06-09 09:42:00,69.0,68.0,29.52,East,98,4.0,10.0,95,0.01,,,0.72,,2013-06-09 14:42:00,
2013-06-09 09:52:00,69.0,67.0,29.52,ESE,109,7.0,12.0,94,0.01,,,0.72,,2013-06-09 14:52:00,
2013-06-09 10:02:00,70.0,68.0,29.56,NE,46,0.0,4.0,93,0.00,,,0.72,,2013-06-09 15:02:00,
2013-06-09 10:12:00,70.0,68.0,29.56,NE,46,0.0,4.0,93,0.00,,,0.72,,2013-06-09 15:12:00,
2013-06-09 10:22:00,70.0,68.0,29.58,WNW,295,0.0,9.0,93,0.00,,,0.72,,2013-06-09 15:22:00,
2013-06-09 10:33:00,71.0,69.0,29.58,West,267,0.0,5.0,93,0.00,,,0.72,,2013-06-09 15:33:00,
2013-06-09 10:43:00,71.0,69.0,29.58,West,267,0.0,5.0,93,0.00,,,0.72,,2013-06-09 15:43:00,
2013-06-09 10:53:00,72.0,68.0,29.59,NNW,331,1.0,8.0,87,0.00,,,0.72,,2013-06-09 15:53:00,
2013-06-09 11:03:00,73.0,68.0,29.59,WNW,292,1.0,7.0,85,0.00,,,0.72,,2013-06-09 16:03:00,
2013-06-09 11:13:00,73.0,68.0,29.59,WNW,292,1.0,7.0,85,0.00,,,0.72,,2013-06-09 16:13:00,
2013-06-09 11:23:00,75.0,69.0,29.59,WNW,288,3.0,8.0,82,0.00,,,0.72,,2013-06-09 16:23:00,
2013-06-09 11:33:00,74.0,68.0,29.59,WNW,285,2.0,9.0,81,0.00,,,0.72,,2013-06-09 16:33:00,
2013-06-09 11:42:00,74.0,68.0,29.59,WNW,285,2.0,9.0,81,0.00,,,0.72,,2013-06-09 16:42:00,
2013-06-09 11:53:00,76.0,70.0,29.59,North,355,2.0,6.0,83,0.00,,,0.72,,2013-06-09 16:53:00,
2013-06-09 12:02:00,78.0,70.0,29.59,WNW,302,1.0,7.0,76,0.00,,,0.72,,2013-06-09 17:02:00,
2013-06-09 12:12:00,78.0,70.0,29.59,WNW,302,1.0,7.0,76,0.00,,,0.72,,2013-06-09 17:12:00,
2013-06-09 12:22:00,78.0,68.0,29.58,West,272,2.0,7.0,72,0.00,,,0.72,,2013-06-09 17:22:00,
2013-06-09 12:32:00,79.0,68.0,29.57,WNW,295,2.0,7.0,70,0.00,,,0.72,,2013-06-09 17:32:00,
2013-06-09 12:42:00,79.0,68.0,29.57,WNW,295,2.0,7.0,70,0.00,,,0.72,,2013-06-09 17:42:00,
2013-06-09 12:52:00,81.0,69.0,29.57,NW,323,3.0,8.0,68,0.00,,,0.72,,2013-06-09 17:52:00,
2013-06-09 13:02:00,82.0,70.0,29.57,NNW,345,1.0,7.0,67,0.00,,,0.72,,2013-06-09 18:02:00,
2013-06-09 13:12:00,82.0,70.0,29.57,NNW,345,1.0,7.0,67,0.00,,,0.72,,2013-06-09 18:12:00,
2013-06-09 13:22:00,81.0,69.0,29.57,NW,306,1.0,8.0,68,0.00,,,0.72,,2013-06-09 18:22:00,
2013-06-09 13:32:00,82.0,69.0,29.57,West,274,1.0,8.0,65,0.00,,,0.72,,2013-06-09 18:32:00,
2013-06-09 13:42:00,82.0,69.0,29.57,West,274,1.0,8.0,65,0.00,,,0.72,,2013-06-09 18:42:00,
2013-06-09 13:52:00,83.0,69.0,29.56,North,355,1.0,8.0,63,0.00,,,0.72,,2013-06-09 18:52:00,
2013-06-09 14:02:00,84.0,69.0,29.56,NW,315,1.0,8.0,61,0.00,,,0.72,,2013-06-09 19:02:00,
2013-06-09 14:12:00,84.0,69.0,29.56,NW,315,1.0,8.0,61,0.00,,,0.72,,2013-06-09 19:12:00,
2013-06-09 14:22:00,85.0,71.0,29.56,NW,321,0.0,6.0,64,0.00,,,0.72,,2013-06-09 19:22:00,
2013-06-09 14:32:00,85.0,70.0,29.55,WNW,292,0.0,6.0,60,0.00,,,0.72,,2013-06-09 19:32:00,
2013-06-09 14:42:00,85.0,70.0,29.55,WNW,292,0.0,6.0,60,0.00,,,0.72,,2013-06-09 19:42:00,
2013-06-09 14:52:00,85.0,69.0,29.55,West,281,3.0,9.0,59,0.00,,,0.72,,2013-06-09 19:52:00,
2013-06-09 15:02:00,86.0,68.0,29.54,NNW,334,4.0,11.0,55,0.00,,,0.72,,2013-06-09 20:02:00,
2013-06-09 15:12:00,86.0,68.0,29.54,NNW,334,4.0,11.0,55,0.00,,,0.72,,2013-06-09 20:12:00,
2013-06-09 15:22:00,86.0,69.0,29.54,NNW,336,1.0,10.0,57,0.00,,,0.72,,2013-06-09 20:22:00,
2013-06-09 15:32:00,86.0,69.0,29.54,NW,314,1.0,10.0,58,0.00,,,0.72,,2013-06-09 20:32:00,
2013-06-09 15:42:00,86.0,69.0,29.54,NW,314,1.0,10.0,58,0.00,,,0.72,,2013-06-09 20:42:00,
2013-06-09 15:52:00,86.0,69.0,29.54,NNW,343,1.0,5.0,57,0.00,,,0.72,,2013-06-09 20:52:00,
2013-06-09 16:02:00,87.0,70.0,29.54,NNE,25,0.0,7.0,57,0.00,,,0.72,,2013-06-09 21:02:00,
2013-06-09 16:12:00,87.0,70.0,29.54,NNE,25,0.0,7.0,57,0.00,,,0.72,,2013-06-09 21:12:00,
2013-06-09 16:22:00,87.0,69.0,29.54,NNW,338,2.0,7.0,56,0.00,,,0.72,,2013-06-09 21:22:00,
2013-06-09 16:33:00,87.0,69.0,29.54,WSW,255,0.0,6.0,56,0.00,,,0.72,,2013-06-09 21:33:00,
2013-06-09 16:43:00,87.0,69.0,29.54,WSW,255,0.0,6.0,56,0.00,,,0.72,,2013-06-09 21:43:00,
2013-06-09 16:53:00,88.0,69.0,29.53,WSW,257,1.0,6.0,53,0.00,,,0.72,,2013-06-09 21:53:00,
2013-06-09 17:02:00,87.0,67.0,29.53,NE,36,2.0,9.0,52,0.00,,,0.72,,2013-06-09 22:02:00,
2013-06-09 17:13:00,87.0,67.0,29.53,NE,36,2.0,9.0,52,0.00,,,0.72,,2013-06-09 22:13:00,
2013-06-09 17:23:00,87.0,67.0,29.53,NNW,335,1.0,8.0,52,0.00,,,0.72,,2013-06-09 22:23:00,
2013-06-09 17:33:00,87.0,68.0,29.52,West,281,0.0,5.0,54,0.00,,,0.72,,2013-06-09 22:33:00,
2013-06-09 17:42:00,87.0,68.0,29.52,West,281,0.0,5.0,54,0.00,,,0.72,,2013-06-09 22:42:00,
2013-06-09 17:52:00,87.0,68.0,29.52,ENE,68,0.0,4.0,53,0.00,,,0.72,,2013-06-09 22:52:00,
2013-06-09 18:02:00,86.0,68.0,29.52,NNE,28,3.0,7.0,55,0.00,,,0.72,,2013-06-09 23:02:00,
2013-06-09 18:12:00,86.0,68.0,29.52,NNE,28,3.0,7.0,55,0.00,,,0.72,,2013-06-09 23:12:00,
2013-06-09 18:22:00,86.0,67.0,29.52,NNE,21,1.0,5.0,54,0.00,,,0.72,,2013-06-09 23:22:00,
2013-06-09 18:32:00,86.0,67.0,29.51,NNE,23,1.0,7.0,54,0.00,,,0.72,,2013-06-09 23:32:00,
2013-06-09 18:42:00,86.0,67.0,29.51,NNE,23,1.0,7.0,54,0.00,,,0.72,,2013-06-09 23:42:00,
2013-06-09 18:52:00,86.0,69.0,29.52,ESE,120,1.0,6.0,57,0.00,,,0.72,,2013-06-09 23:52:00,
2013-06-09 19:02:00,85.0,69.0,29.52,ENE,74,1.0,4.0,58,0.00,,,0.72,,2013-06-10 00:02:00,
2013-06-09 19:13:00,85.0,69.0,29.52,ENE,74,1.0,4.0,58,0.00,,,0.72,,2013-06-10 00:13:00,
2013-06-09 19:22:00,85.0,68.0,29.52,ESE,113,0.0,6.0,57,0.00,,,0.72,,2013-06-10 00:22:00,
2013-06-09 19:32:00,85.0,69.0,29.52,ESE,105,0.0,5.0,58,0.00,,,0.72,,2013-06-10 00:32:00,
2013-06-09 19:42:00,85.0,69.0,29.52,ESE,105,0.0,5.0,58,0.00,,,0.72,,2013-06-10 00:42:00,
2013-06-09 19:52:00,84.0,68.0,29.52,NNE,22,0.0,5.0,58,0.00,,,0.72,,2013-06-10 00:52:00,
2013-06-09 20:02:00,84.0,68.0,29.52,East,90,1.0,3.0,59,0.00,,,0.72,,2013-06-10 01:02:00,
2013-06-09 20:12:00,84.0,68.0,29.52,East,90,1.0,3.0,59,0.00,,,0.72,,2013-06-10 01:12:00,
2013-06-09 20:22:00,83.0,68.0,29.52,NE,52,0.0,2.0,61,0.00,,,0.72,,2013-06-10 01:22:00,
2013-06-09 20:32:00,82.0,68.0,29.52,East,82,0.0,0.0,63,0.00,,,0.72,,2013-06-10 01:32:00,
2013-06-09 20:43:00,82.0,68.0,29.52,East,82,0.0,0.0,63,0.00,,,0.72,,2013-06-10 01:43:00,
2013-06-09 20:52:00,80.0,68.0,29.52,East,82,0.0,0.0,66,0.00,,,0.72,,2013-06-10 01:52:00,
2013-06-09 21:02:00,80.0,68.0,29.52,East,82,0.0,0.0,67,0.00,,,0.72,,2013-06-10 02:02:00,
2013-06-09 21:12:00,80.0,68.0,29.52,East,82,0.0,0.0,67,0.00,,,0.72,,2013-06-10 02:12:00,
2013-06-09 21:22:00,80.0,68.0,29.53,ESE,115,1.0,3.0,67,0.00,,,0.72,,2013-06-10 02:22:00,
2013-06-09 21:32:00,80.0,68.0,29.54,East,101,0.0,5.0,68,0.00,,,0.72,,2013-06-10 02:32:00,
2013-06-09 21:42:00,80.0,68.0,29.54,East,101,0.0,5.0,68,0.00,,,0.72,,2013-06-10 02:42:00,
2013-06-09 21:52:00,79.0,69.0,29.54,East,89,0.0,2.0,71,0.00,,,0.72,,2013-06-10 02:52:00,
2013-06-09 22:02:00,78.0,69.0,29.55,East,89,0.0,0.0,73,0.00,,,0.72,,2013-06-10 03:02:00,
2013-06-09 22:12:00,78.0,69.0,29.55,East,89,0.0,0.0,73,0.00,,,0.72,,2013-06-10 03:12:00,
2013-06-09 22:22:00,77.0,68.0,29.56,East,89,0.0,0.0,74,0.00,,,0.72,,2013-06-10 03:22:00,
2013-06-09 22:33:00,76.0,68.0,29.57,East,89,0.0,0.0,77,0.00,,,0.72,,2013-06-10 03:33:00,
2013-06-09 22:43:00,76.0,68.0,29.57,East,89,0.0,0.0,77,0.00,,,0.72,,2013-06-10 03:43:00,
2013-06-09 22:53:00,75.0,68.0,29.57,East,89,0.0,0.0,79,0.00,,,0.72,,2013-06-10 03:53:00,
2013-06-09 23:03:00,76.0,69.0,29.58,East,89,0.0,0.0,78,0.00,,,0.72,,2013-06-10 04:03:00,
2013-06-09 23:12:00,76.0,69.0,29.58,East,89,0.0,0.0,78,0.00,,,0.72,,2013-06-10 04:12:00,
2013-06-09 23:23:00,76.0,68.0,29.58,East,95,0.0,2.0,77,0.00,,,0.72,,2013-06-10 04:23:00,
2013-06-09 23:33:00,76.0,68.0,29.58,East,98,0.0,1.0,77,0.00,,,0.72,,2013-06-10 04:33:00,
2013-06-09 23:42:00,76.0,68.0,29.58,East,98,0.0,1.0,77,0.00,,,0.72,,2013-06-10 04:42:00,
2013-06-09 23:53:00,76.0,68.0,29.58,ESE,102,0.0,1.0,77,0.00,,,0.72,,2013-06-10 04:53:00,